TimeEDT,TemperatureF,Dew PointF,Humidity,Sea Level PressureIn,VisibilityMPH,Wind Direction,Wind SpeedMPH,Gust SpeedMPH,PrecipitationIn,Events,Conditions,WindDirDegrees,DateUTC
12:53 AM,54.0,48.9,83,30.06,10.0,Calm,Calm,-,N/A,,Overcast,0,2013-04-19 04:53:00
1:53 AM,54.0,51.1,90,30.04,8.0,Calm,Calm,-,N/A,,Overcast,0,2013-04-19 05:53:00
2:53 AM,55.0,52.0,89,30.01,7.0,Calm,Calm,-,N/A,,Overcast,0,2013-04-19 06:53:00
3:53 AM,55.9,53.1,90,29.96,8.0,SE,3.5,-,N/A,,Overcast,130,2013-04-19 07:53:00
4:53 AM,57.9,55.0,90,29.96,10.0,SW,4.6,-,N/A,,Overcast,230,2013-04-19 08:53:00
5:06 AM,57.2,55.4,94,29.96,7.0,WSW,3.5,-,N/A,,Overcast,250,2013-04-19 09:06:00
5:53 AM,57.9,55.9,93,29.94,7.0,South,4.6,-,N/A,,Overcast,180,2013-04-19 09:53:00
6:48 AM,59.0,55.4,88,29.93,10.0,South,5.8,-,N/A,,Overcast,170,2013-04-19 10:48:00
6:53 AM,59.0,55.9,90,29.93,10.0,SSE,6.9,-,N/A,,Overcast,160,2013-04-19 10:53:00
7:53 AM,60.1,57.0,90,29.93,10.0,SSE,8.1,-,N/A,,Overcast,160,2013-04-19 11:53:00
8:53 AM,62.1,57.0,84,29.91,10.0,South,10.4,20.7,N/A,,Overcast,170,2013-04-19 12:53:00
9:53 AM,63.0,57.9,84,29.89,10.0,South,10.4,17.3,N/A,,Overcast,180,2013-04-19 13:53:00
10:53 AM,66.9,59.0,76,29.85,10.0,South,11.5,20.7,N/A,,Overcast,190,2013-04-19 14:53:00
11:53 AM,66.9,59.0,76,29.83,10.0,South,9.2,19.6,N/A,,Overcast,170,2013-04-19 15:53:00
12:53 PM,70.0,59.0,68,29.79,10.0,South,9.2,-,N/A,,Overcast,180,2013-04-19 16:53:00
1:53 PM,69.1,60.1,73,29.77,10.0,South,8.1,17.3,0.00,,Overcast,190,2013-04-19 17:53:00
2:53 PM,73.0,60.1,64,29.72,10.0,South,16.1,23.0,N/A,,Overcast,170,2013-04-19 18:53:00
3:53 PM,73.9,61.0,64,29.66,10.0,SE,13.8,26.5,N/A,,Mostly Cloudy,140,2013-04-19 19:53:00
4:53 PM,73.0,61.0,66,29.63,10.0,SSE,15.0,20.7,N/A,,Scattered Clouds,160,2013-04-19 20:53:00
5:53 PM,72.0,60.1,66,29.62,10.0,SSE,11.5,20.7,N/A,,Mostly Cloudy,160,2013-04-19 21:53:00
6:53 PM,69.1,60.1,73,29.61,10.0,SE,9.2,-,N/A,,Mostly Cloudy,140,2013-04-19 22:53:00
7:53 PM,69.1,60.1,73,29.59,10.0,Variable,4.6,-,N/A,,Mostly Cloudy,0,2013-04-19 23:53:00
8:53 PM,70.0,61.0,73,29.58,10.0,SSW,8.1,23.0,N/A,,Overcast,200,2013-04-20 00:53:00
9:46 PM,68.0,60.8,78,29.66,6.0,WSW,21.9,28.8,0.01,Rain-Thunderstorm,Light Thunderstorms and Rain,250,2013-04-20 01:46:00
9:53 PM,66.0,61.0,84,29.64,2.5,West,17.3,32.2,0.06,Rain-Thunderstorm,Thunderstorms and Rain,260,2013-04-20 01:53:00
9:57 PM,64.4,60.8,88,29.67,3.0,SW,15.0,32.2,0.01,Rain-Thunderstorm,Light Rain,230,2013-04-20 01:57:00
10:02 PM,64.4,62.6,94,29.67,2.5,SSW,11.5,21.9,0.06,Rain,Heavy Rain,210,2013-04-20 02:02:00
10:07 PM,64.4,62.6,94,29.66,1.8,SSW,8.1,19.6,0.08,Rain-Thunderstorm,Rain,210,2013-04-20 02:07:00
10:14 PM,64.4,60.8,88,29.66,2.5,SSW,8.1,-,0.11,Rain-Thunderstorm,Light Thunderstorms and Rain,210,2013-04-20 02:14:00
10:27 PM,64.4,60.8,88,29.64,5.0,South,5.8,-,0.14,Rain-Thunderstorm,Light Thunderstorms and Rain,180,2013-04-20 02:27:00
10:48 PM,62.6,60.8,94,29.66,2.5,SW,5.8,-,0.18,Rain-Thunderstorm,Thunderstorms and Rain,220,2013-04-20 02:48:00
10:53 PM,63.0,61.0,93,29.65,2.0,SSW,5.8,-,0.20,Rain-Thunderstorm,Rain,210,2013-04-20 02:53:00
11:00 PM,62.6,60.8,94,29.66,3.0,SSW,4.6,-,0.01,Rain,Light Rain,210,2013-04-20 03:00:00
11:28 PM,62.6,57.2,82,29.65,8.0,West,12.7,18.4,0.06,Rain,Light Rain,260,2013-04-20 03:28:00
11:53 PM,59.0,53.1,81,29.66,5.0,SW,12.7,19.6,0.09,Rain,Rain,220,2013-04-20 03:53:00